星链-30310 (STARLINK-30310 )

导读

STARLINK-30310是美国太空探索技术公司Starlink星链互联网卫星星座中的一员,于2023年9月1日发射入轨。星链计划旨在搭建覆盖全球的卫星互联网星座,为全球偏远地区、灾害现场等场景提供低成本高速网络服务,该卫星承担着拓展星链星座覆盖范围,提升星座服务能力的任务。

基本信息
目录编号:
57733
目录名称:
STARLINK-30310
国际标识:
2023-131B
轨道中心:
EARTH
卫星名称:
星链-30310
卫星全名:
星链-30310 (STARLINK-30310 )
卫星状态:
在轨 (已飞行1106 天)
发射日期:
2023-09-01 UTC
国别 :
美国 (US)
星等 :
--
该卫星已列入 空间交会检测服务 Space Conjunction Data Service (SCDS) ,当前飞行风险评估等级: 高风险
轨道信息
数据来源 国际轨道数据 AOE轨道数据
星历时间 2026-09-11T15:04:46+0800
8小时前
查看轨道信息
2026-09-06T21:00:00+0800
5天前
查看轨道信息
半长轴 6861.235km 6861.164km
偏心率 0.0002591 0.0001506
轨道倾角 43.006° 43.000°
近地点辐角 297.138° 256.928°
升交点赤经 211.811° 238.654°
平近点角 62.921° 212.831°
近地点 481.32km 481.993km
远地点 484.876km 484.061km
周期 94.268分钟 94.266分钟
每日圈数 15.275637 15.275876
详细信息
固有亮度:
5
最大亮度:
0.3
卫星平台:
Starlink v2.0 mini
覆盖范围:
全球
运营商:
太空探索技术公司
运营商所在国:
美国
制造商(研发单位):
太空探索技术公司
制造商所在国:
美国
使用方式:
暂无
卫星简介
星链(Starlink)计划是由太空探索技术公司(SpaceX)提出的一个巨型低轨卫星互联网星座项目,计划在2019年至2024年间在太空搭建由约1.2万颗卫星组成的“星链”网络,其中1584颗将部署在地球上空550千米处的近地轨道,并从2020年开始工作。该卫星仍在工作。
2D轨道图
3D轨道图
轨道高度分析图
轨道倾角分析图
轨道综合分析图
查看轨道综合分析图
交会数据列表
事件ID 空间交会对象 最接近时刻(TCA) 交会距离 交会风险概率(CRP) 交会风险指数(CRI) 操作
CDM_260911-102905-773306-342522
2026-09-11T
10:29:09+0000
0.192 km
中距离
6.241639E-4 高风险 0.91
CDM_260911-190705-773306-342522
2026-09-11T
19:07:00+0000
0.493 km
远距离
1.263811E-4 高风险 0.77
CDM_260911-174605-773306-741822
2026-09-11T
17:46:03+0000
0.610 km
远距离
6.300049E-5 中风险 0.71
CDM_260912-022305-773306-741822
2026-09-12T
02:23:54+0000
0.636 km
远距离
5.580061E-5 中风险 0.7
CDM_260913-011305-773306-260222
2026-09-13T
01:13:53+0000
0.735 km
远距离
4.797881E-5 中风险 0.69
CDM_260911-122605-773306-453024
2026-09-11T
12:26:28+0000
1.105 km
极远距离
1.86401E-5 中风险 0.6
CDM_260913-024805-773306-260222
2026-09-13T
02:48:02+0000
1.286 km
极远距离
7.257878E-6 低风险 0.52
CDM_260913-174205-773306-260221
2026-09-13T
17:42:30+0000
1.311 km
极远距离
6.818958E-6 低风险 0.52
CDM_260913-191605-773306-260221
2026-09-13T
19:16:39+0000
1.594 km
极远距离
3.610699E-6 低风险 0.46
CDM_260911-192005-773306-741822
2026-09-11T
19:20:13+0000
1.478 km
极远距离
3.418557E-6 低风险 0.46
与全量物体交会距离演化趋势
与全量物体交会风险概率演化趋势